Date String (YYYY-MM-DD hh:mm:ss) UTC,Instrument flags,absolute air pressure of the measurement (hPa),sample flow rate (lpm),inlet stack bypass flow (lpm),air temperature of the measurement (°C),ambient temperature measured by the external sensor (°C),aerosol sample conditioner tube jacket temperature (°C),OPC LED temperature (°C),internal box temperature (°C),relative humidity of the measurement (%),span deviation,mass concentration of particles derived from Lorenz-Mie calculation of OPC scattering (μg/m³),mass concentration of particles derived from Lorenz-Mie calculation of OPC scattering (μg/m³),mass concentration of particles derived from Lorenz-Mie calculation of OPC scattering (μg/m³)
DateTimeUTC,F1_M11,P_M11,Q1_M11,Q2_M11,T1_M11,T2_M11,T3_M11,T4_M11,T5_M11,U1_M11,ZSPAN_M11,X2_M11,X0_M11,X1_M11
2023-06-15 16:00:00,SystemResetWarning,0826.2,5.00,000.00,030.2,026.8,000.0,038.8,031.5,29.4,0000.0,0002.15,0004.46,0001.56
2023-06-15 16:01:00,SystemResetWarning,0826.2,5.01,000.00,030.2,027.2,000.0,038.8,031.5,28.7,0000.0,0002.14,0004.59,0001.57
2023-06-15 16:02:00,SystemResetWarning,0826.2,4.98,000.00,030.1,027.5,000.0,038.8,031.6,28.1,0000.0,0002.10,0004.69,0001.57
2023-06-15 16:03:00,SystemResetWarning,0826.2,4.99,000.00,030.1,027.7,000.0,038.8,031.6,27.6,0000.0,0002.12,0004.76,0001.59
2023-06-15 16:04:00,SystemResetWarning,0826.2,5.00,000.00,030.2,027.9,000.0,038.8,031.6,28.0,0000.0,0002.17,0004.99,0001.60
2023-06-15 16:05:00,SystemResetWarning,0826.2,5.01,000.00,030.2,028.1,000.0,038.8,031.6,28.2,0000.0,0002.19,0004.95,0001.63
2023-06-15 16:06:00,SystemResetWarning,0826.2,5.00,000.00,030.2,028.3,000.0,038.8,031.7,27.4,0000.0,0002.22,0005.00,0001.64
2023-06-15 16:07:00,SystemResetWarning,0826.2,4.99,000.00,030.2,028.4,000.0,038.8,031.7,27.0,0000.0,0002.21,0004.90,0001.64
2023-06-15 16:08:00,SystemResetWarning,0826.2,4.99,000.00,030.2,028.5,000.0,038.8,031.8,27.4,0000.0,0002.22,0004.61,0001.67
2023-06-15 16:09:00,SystemResetWarning,0826.2,5.00,000.00,030.2,028.6,000.0,038.8,031.7,27.1,0000.0,0002.22,0004.49,0001.70
2023-06-15 16:10:00,SystemResetWarning,0826.2,5.01,000.00,030.2,028.6,000.0,038.8,031.8,26.4,0000.0,0002.31,0004.62,0001.74
2023-06-15 16:11:00,SystemResetWarning,0826.2,5.00,000.00,030.3,028.7,000.0,038.8,031.8,26.9,0000.0,0002.35,0004.71,0001.75
2023-06-15 16:12:00,SystemResetWarning,0826.2,5.01,000.00,030.3,028.7,000.0,038.8,031.8,27.0,0000.0,0002.41,0004.65,0001.77
2023-06-15 16:13:00,SystemResetWarning,0826.2,5.01,000.00,030.3,028.8,000.0,038.8,031.9,26.7,0000.0,0002.45,0004.57,0001.79
2023-06-15 16:14:00,SystemResetWarning,0826.2,4.99,000.00,030.3,028.8,000.0,038.8,031.9,26.9,0000.0,0002.48,0004.62,0001.81
2023-06-15 16:15:00,SystemResetWarning,0826.2,4.99,000.00,030.4,028.9,000.0,038.9,031.9,27.9,0000.0,0002.49,0004.53,0001.84
2023-06-15 16:16:00,SystemResetWarning,0826.2,4.99,000.00,030.4,028.9,000.0,038.9,031.9,27.1,0000.0,0002.49,0004.45,0001.84
2023-06-15 16:17:00,SystemResetWarning,0826.3,5.00,000.00,030.4,028.9,000.0,038.9,032.0,26.6,0000.0,0002.49,0004.45,0001.85
2023-06-15 16:18:00,SystemResetWarning,0826.3,5.01,000.00,030.4,029.0,000.0,038.9,032.0,25.9,0000.0,0002.57,0004.67,0001.86
2023-06-15 16:19:00,SystemResetWarning,0826.3,5.00,000.00,030.4,028.6,000.0,038.9,032.0,26.2,0000.0,0002.59,0004.52,0001.87
2023-06-15 16:20:00,SystemResetWarning,0826.3,4.98,000.00,030.5,026.6,000.0,038.9,031.9,26.4,0000.0,0002.58,0004.29,0001.87
2023-06-15 16:21:00,SystemResetWarning,0826.2,5.01,000.00,030.4,025.7,000.0,038.8,031.9,25.3,0000.0,0002.56,0004.78,0001.86
2023-06-15 16:22:00,SystemResetWarning,0826.2,5.01,000.00,030.3,025.8,000.0,038.8,031.6,26.3,0000.0,0002.57,0005.02,0001.88
2023-06-15 16:23:00,SystemResetWarning,0826.2,5.00,000.00,030.2,026.2,000.0,038.8,031.5,27.1,0000.0,0002.58,0005.21,0001.89
2023-06-15 16:24:00,SystemResetWarning,0826.3,5.01,000.00,030.2,026.6,000.0,038.8,031.5,26.5,0000.0,0002.58,0005.22,0001.89
2023-06-15 16:25:00,SystemResetWarning,0826.3,4.99,000.00,030.2,027.0,000.0,038.8,031.5,27.2,0000.0,0002.57,0005.59,0001.90
2023-06-15 16:26:00,SystemResetWarning,0826.2,4.99,000.00,030.2,027.3,000.0,038.8,031.6,28.3,0000.0,0002.54,0006.06,0001.91
2023-06-15 16:27:00,SystemResetWarning,0826.3,5.01,000.00,030.2,027.6,000.0,038.8,031.6,29.1,0000.0,0002.60,0006.81,0001.92
2023-06-15 16:28:00,SystemResetWarning,0826.2,5.01,000.00,030.2,027.8,000.0,038.8,031.6,27.6,0000.0,0002.62,0007.86,0001.93
2023-06-15 16:29:00,SystemResetWarning,0826.2,4.99,000.00,030.2,028.0,000.0,038.8,031.7,27.8,0000.0,0002.54,0007.86,0001.92
2023-06-15 16:30:00,SystemResetWarning,0826.2,4.99,000.00,030.2,028.2,000.0,038.8,031.7,27.5,0000.0,0002.56,0008.44,0001.92
2023-06-15 16:31:00,SystemResetWarning,0826.2,5.00,000.00,030.2,028.3,000.0,038.8,031.7,27.6,0000.0,0002.61,0009.16,0001.93
2023-06-15 16:32:00,SystemResetWarning,0826.2,5.00,000.00,030.2,028.4,000.0,038.8,031.7,27.3,0000.0,0002.59,0009.00,0001.92
2023-06-15 16:33:00,SystemResetWarning,0826.2,5.00,000.00,030.2,028.5,000.0,038.8,031.8,25.1,0000.0,0002.52,0008.86,0001.89
2023-06-15 16:34:00,SystemResetWarning,0826.2,5.00,000.00,030.3,028.6,000.0,038.8,031.8,25.9,0000.0,0002.48,0008.75,0001.89
2023-06-15 16:35:00,SystemResetWarning,0826.2,5.00,000.00,030.3,028.7,000.0,038.8,031.9,25.7,0000.0,0002.50,0008.78,0001.88
2023-06-15 16:36:00,SystemResetWarning,0826.2,5.01,000.00,030.3,028.7,000.0,038.8,031.9,26.5,0000.0,0002.48,0008.78,0001.86
2023-06-15 16:37:00,SystemResetWarning,0826.2,5.00,000.00,030.3,028.8,000.0,038.8,031.9,26.1,0000.0,0002.50,0008.62,0001.85
2023-06-15 16:38:00,SystemResetWarning,0826.2,5.00,000.00,030.4,028.9,000.0,038.9,031.9,24.9,0000.0,0002.41,0008.15,0001.85
2023-06-15 16:39:00,SystemResetWarning,0826.3,5.01,000.00,030.4,028.9,000.0,038.9,032.0,26.0,0000.0,0002.40,0007.92,0001.85
2023-06-15 16:40:00,SystemResetWarning,0826.2,5.01,000.00,030.4,028.9,000.0,038.9,032.0,24.5,0000.0,0002.48,0007.99,0001.86
2023-06-15 16:41:00,SystemResetWarning,0826.2,5.00,000.00,030.4,028.9,000.0,038.9,032.0,24.5,0000.0,0002.50,0007.71,0001.87
2023-06-15 16:42:00,SystemResetWarning,0826.2,4.98,000.00,030.5,027.5,000.0,038.9,032.0,24.1,0000.0,0002.46,0006.61,0001.85
2023-06-15 16:43:00,SystemResetWarning,0826.2,5.00,000.00,030.4,025.3,000.0,038.8,031.9,24.9,0000.0,0002.48,0007.05,0001.85
2023-06-15 16:44:00,SystemResetWarning,0826.2,5.00,000.00,030.4,024.7,000.0,038.7,031.8,25.3,0000.0,0002.55,0007.01,0001.87
2023-06-15 16:45:00,SystemResetWarning,0826.2,5.02,000.00,030.2,025.0,000.0,038.7,031.4,24.5,0000.0,0002.57,0007.08,0001.87
2023-06-15 16:46:00,SystemResetWarning,0826.2,5.00,000.00,030.1,025.5,000.0,038.7,031.3,25.3,0000.0,0002.53,0007.08,0001.86
2023-06-15 16:47:00,SystemResetWarning,0826.2,5.00,000.00,030.1,026.0,000.0,038.7,031.3,25.1,0000.0,0002.55,0007.27,0001.88
2023-06-15 16:48:00,SystemResetWarning,0826.2,4.99,000.00,030.0,026.5,000.0,038.7,031.3,24.1,0000.0,0002.51,0006.98,0001.86
2023-06-15 16:49:00,SystemResetWarning,0826.3,5.00,000.00,030.0,026.9,000.0,038.7,031.4,25.0,0000.0,0002.53,0007.08,0001.86
2023-06-15 16:50:00,SystemResetWarning,0826.3,5.01,000.00,030.0,027.2,000.0,038.7,031.4,24.1,0000.0,0002.56,0006.53,0001.86
2023-06-15 16:51:00,SystemResetWarning,0826.3,5.01,000.00,030.0,027.5,000.0,038.6,031.4,23.7,0000.0,0002.54,0005.82,0001.86
2023-06-15 16:52:00,SystemResetWarning,0826.3,4.99,000.00,030.0,027.7,000.0,038.6,031.5,24.7,0000.0,0002.52,0005.78,0001.85
2023-06-15 16:53:00,SystemResetWarning,0826.3,4.99,000.00,030.0,027.9,000.0,038.6,031.5,25.1,0000.0,0002.53,0005.84,0001.86
2023-06-15 16:54:00,SystemResetWarning,0826.3,5.01,000.00,030.0,028.1,000.0,038.6,031.5,25.0,0000.0,0002.54,0005.08,0001.88
2023-06-15 16:55:00,SystemResetWarning,0826.2,5.01,000.00,030.1,028.2,000.0,038.6,031.6,25.5,0000.0,0002.52,0004.98,0001.90
2023-06-15 16:56:00,SystemResetWarning,0826.3,4.99,000.00,030.1,028.4,000.0,038.6,031.6,25.5,0000.0,0002.56,0005.02,0001.93
2023-06-15 16:57:00,SystemResetWarning,0826.3,4.99,000.00,030.1,028.5,000.0,038.7,031.7,26.1,0000.0,0002.68,0005.32,0001.98
2023-06-15 16:58:00,SystemResetWarning,0826.3,5.00,000.00,030.1,028.5,000.0,038.7,031.7,25.9,0000.0,0002.73,0004.78,0002.01
2023-06-15 16:59:00,SystemResetWarning,0826.3,5.00,000.00,030.2,028.6,000.0,038.7,031.7,26.1,0000.0,0002.76,0004.78,0002.05
